Tracking 17143 objects as of 25-May-2015
HD Live streaming from Space Station

HYLAS 2

Track HYLAS 2 now!
HYLAS 2 is classified as:


NORAD ID: 38741
Int'l Code: 2012-043B
Perigee: 35,783.4 km
Apogee: 35,803.2 km
Inclination: 0.0 °
Period: 1,436.1 minutes
Semi major axis: 42164 km
RCS: 1.4658 m2 (large)
Launch date: August 2, 2012
Source: United Kingdom (UK)

HYLAS 2, owned by Avanti Communications of London, carries 24 Ka-band transponders and is designed to provide broadband links to African customers. Hylas 2 is likely to be operated at 31 degrees east.
Your satellite tracking list
Your tracking list is empty





NASA's NSSDC Master Catalog

Two Line Element Set (TLE):
1 38741U 12043B   15143.01563500  .00000139  00000-0  10000-3 0  9994
2 38741 000.0494 105.5573 0002353 331.6428 199.7453 01.00273305 10301

Source of the keplerian elements: AFSPC

N2YO: 503